Minot AFB, ND

5:04 PM CST on November 13, 2019 (GMT -0600)
Minot Air Force Base

Weather History for KMIB - September, 2019

Change the Weather History Date:

Friday, September 20, 2019

  Actual Average Record
Temperature  
Mean Temperature 60 °F -  
Max Temperature 66 °F 65 °F 81 °F (2015)
Min Temperature 55 °F 40 °F 26 °F (1997)
Degree Days  
Heating Degree Days 4    
Growing Degree Days 10 (Base 50)    
Moisture  
Dew Point 61 °F    
Average Humidity 96    
Maximum Humidity 100    
Minimum Humidity 88    
Precipitation  
Precipitation 0.84 in - - ()
Sea Level Pressure  
Sea Level Pressure 29.72 in    
Wind  
Wind Speed 9 mph (ENE)    
Max Wind Speed 18 mph    
Max Gust Speed 25 mph    
Visibility 9 miles    
Events Fog , Rain , Thunderstorm    
Averages and records for this station are not official NWS values.
T = Trace of Precipitation, MM = Missing Value Source: NWS Daily Summary

Daily Weather History Graph

Daily Weather History Graph

Search for Another Location

Airport or City:

Astronomy

Sep. 20, 2019 Rise Set
Actual Time 7:29 AM CDT 7:47 PM CDT
Civil Twilight 6:57 AM CDT 8:19 PM CDT
Nautical Twilight 6:20 AM CDT 8:55 PM CDT
Astronomical Twilight 5:42 AM CDT 9:34 PM CDT
Moon 11:10 PM CDT (9/20) 2:03 PM CDT (9/20)
Length of Visible Light 13h 21m
Length of Day
12h 18m
Waning Gibbous, 65% of the Moon is Illuminated
Sep 20
Waning Gibbous
Sep 21
Last Quarter
Sep 28
New
Oct 5
First Quarter
Oct 13
Full

Hourly Weather History & Observations

Time (CDT) Temp. Dew Point Humidity Pressure Visibility Wind Dir Wind Speed Gust Speed Precip Events Conditions
12:56 AM 63.9 °F 61.5 °F 92% 29.83 in 10.0 mi ESE 12.7 mph - N/A   Overcast
1:56 AM 64.8 °F 61.3 °F 89% 29.80 in 10.0 mi SE 13.8 mph - N/A   Overcast
2:56 AM 64.2 °F 60.6 °F 88% 29.74 in 10.0 mi ESE 15.0 mph - N/A   Clear
3:56 AM 62.8 °F 60.1 °F 91% 29.73 in 10.0 mi ESE 9.2 mph - N/A   Partly Cloudy
4:56 AM 61.3 °F 59.5 °F 94% 29.75 in 10.0 mi Calm Calm - N/A   Scattered Clouds
5:06 AM 62.6 °F 60.8 °F 94% 29.75 in 10.0 mi Calm Calm - N/A   Mostly Cloudy
5:41 AM 62.6 °F 60.8 °F 94% 29.75 in 10.0 mi NNE 3.5 mph - N/A   Overcast
5:56 AM 63.3 °F 61.0 °F 92% 29.73 in 10.0 mi NE 3.5 mph - N/A   Overcast
6:27 AM 62.6 °F 60.8 °F 94% 29.74 in 10.0 mi North 13.8 mph - N/A   Light Drizzle
6:38 AM 62.6 °F 60.8 °F 94% 29.74 in 10.0 mi North 12.7 mph 19.6 mph N/A   Overcast
6:43 AM 62.6 °F 60.8 °F 94% 29.73 in 10.0 mi NNE 12.7 mph 19.6 mph N/A   Overcast
6:56 AM 61.9 °F 60.1 °F 94% 29.74 in 10.0 mi NNE 6.9 mph - 0.00 in   Overcast
7:01 AM 62.6 °F 60.8 °F 94% 29.74 in 10.0 mi NNE 10.4 mph - N/A   Overcast
7:56 AM 62.1 °F 59.4 °F 91% 29.72 in 10.0 mi ENE 9.2 mph - N/A   Overcast
8:26 AM 62.6 °F 59.0 °F 88% 29.72 in 10.0 mi East 10.4 mph - N/A   Overcast
8:56 AM 63.0 °F 60.3 °F 91% 29.73 in 10.0 mi ESE 10.4 mph - N/A   Overcast
9:26 AM 64.4 °F 62.6 °F 94% 29.72 in 10.0 mi ESE 9.2 mph - N/A   Overcast
9:27 AM 64.4 °F 62.6 °F 94% 29.73 in 10.0 mi ESE 8.1 mph - N/A   Overcast
9:42 AM 64.4 °F 62.6 °F 94% 29.73 in 10.0 mi ESE 12.7 mph - N/A   Overcast
9:50 AM 64.4 °F 62.6 °F 94% 29.73 in 9.0 mi ESE 11.5 mph - N/A   Light Drizzle
9:56 AM 63.9 °F 63.0 °F 97% 29.73 in 6.0 mi ESE 9.2 mph - 0.00 in   Light Drizzle
10:17 AM 64.4 °F 64.4 °F 100% 29.73 in 2.5 mi SE 4.6 mph - N/A   Light Drizzle
10:18 AM 64.4 °F 64.4 °F 100% 29.74 in 2.5 mi SE 4.6 mph - N/A   Light Drizzle
10:21 AM 64.4 °F 64.4 °F 100% 29.74 in 2.5 mi SE 4.6 mph - N/A   Light Drizzle
10:26 AM 64.4 °F 64.4 °F 100% 29.74 in 2.0 mi SSE 4.6 mph - N/A   Light Drizzle
10:30 AM 64.4 °F 64.4 °F 100% 29.75 in 3.0 mi SSE 4.6 mph - N/A Rain Light Rain
10:57 AM 64.8 °F 64.4 °F 99% 29.74 in 3.0 mi SSE 4.6 mph - 0.01 in   Light Drizzle
11:48 AM 66.2 °F 64.4 °F 94% 29.72 in 7.0 mi NW 9.2 mph - N/A   Overcast
11:56 AM 65.3 °F 64.9 °F 99% 29.67 in 7.0 mi NNW 17.3 mph - 0.00 in   Mostly Cloudy
12:07 PM 66.2 °F 64.4 °F 94% 29.68 in 10.0 mi NW 12.7 mph - N/A Rain Light Rain
12:10 PM 66.2 °F 64.4 °F 94% 29.69 in 10.0 mi NW 9.2 mph - N/A   Mostly Cloudy
12:15 PM 66.2 °F 66.2 °F 100% 29.70 in 10.0 mi NNW 9.2 mph - N/A   Mostly Cloudy
12:30 PM 66.2 °F 66.2 °F 100% 29.75 in 10.0 mi WSW 3.5 mph - N/A   Mostly Cloudy
12:59 PM 66.2 °F 65.8 °F 99% 29.76 in 10.0 mi SSW 4.6 mph - 0.00 in   Overcast
1:06 PM 66.2 °F 66.2 °F 100% 29.76 in 10.0 mi WSW 5.8 mph - N/A   Overcast
1:20 PM 66.2 °F 66.2 °F 100% 29.75 in 10.0 mi NNW 10.4 mph - N/A   Overcast
1:35 PM 64.4 °F 64.4 °F 100% 29.75 in 10.0 mi North 6.9 mph - N/A   Overcast
1:45 PM 66.2 °F 64.4 °F 94% 29.74 in 10.0 mi NNE 6.9 mph - N/A   Overcast
1:56 PM 65.7 °F 64.8 °F 97% 29.74 in 10.0 mi ENE 9.2 mph - N/A   Overcast
2:01 PM 66.2 °F 64.4 °F 94% 29.74 in 10.0 mi ENE 10.4 mph - N/A   Overcast
2:06 PM 66.2 °F 64.4 °F 94% 29.74 in 10.0 mi NE 8.1 mph - N/A   Overcast
2:16 PM 66.2 °F 64.4 °F 94% 29.73 in 10.0 mi NE 9.2 mph - N/A   Scattered Clouds
2:37 PM 66.2 °F 62.6 °F 88% 29.75 in 10.0 mi North 6.9 mph - N/A Thunderstorm Thunderstorm
2:49 PM 66.2 °F 62.6 °F 88% 29.84 in 10.0 mi West 12.7 mph 24.2 mph N/A Rain , Thunderstorm Light Thunderstorms and Rain
2:50 PM 66.2 °F 62.6 °F 88% 29.84 in 10.0 mi WSW 13.8 mph 24.2 mph N/A Rain , Thunderstorm Light Thunderstorms and Rain
2:52 PM 66.2 °F 62.6 °F 88% 29.84 in 7.0 mi SSW 11.5 mph 24.2 mph N/A Rain , Thunderstorm Heavy Thunderstorms and Rain
2:56 PM 63.5 °F 60.3 °F 89% 29.79 in 4.0 mi SE 9.2 mph 24.2 mph 0.58 in Rain , Thunderstorm Heavy Thunderstorms and Rain
3:01 PM 59.0 °F 59.0 °F 100% 29.79 in 0.8 mi SE 15.0 mph - N/A Fog , Rain , Thunderstorm Heavy Thunderstorms and Rain
3:06 PM 57.2 °F 55.4 °F 94% 29.75 in 2.2 mi ESE 18.4 mph 25.3 mph N/A Rain , Thunderstorm Thunderstorms and Rain
3:11 PM 55.4 °F 55.4 °F 100% 29.73 in 4.0 mi East 17.3 mph 25.3 mph N/A Rain , Thunderstorm Thunderstorms and Rain
3:23 PM 57.2 °F 57.2 °F 100% 29.68 in 10.0 mi ENE 17.3 mph 20.7 mph N/A Rain Light Rain
3:32 PM 55.4 °F 55.4 °F 100% 29.70 in 10.0 mi East 18.4 mph - N/A Thunderstorm Overcast
3:33 PM 55.4 °F 55.4 °F 100% 29.70 in 10.0 mi ESE 18.4 mph - N/A Thunderstorm Overcast
3:56 PM 55.4 °F 55.0 °F 99% 29.71 in 10.0 mi East 11.5 mph - 0.20 in   Scattered Clouds
4:17 PM 57.2 °F 55.4 °F 94% 29.73 in 6.0 mi ESE 9.2 mph - N/A Thunderstorm Light Drizzle
4:24 PM 57.2 °F 57.2 °F 100% 29.71 in 6.0 mi East 5.8 mph - N/A   Scattered Clouds
4:25 PM 57.2 °F 57.2 °F 100% 29.71 in 7.0 mi ENE 4.6 mph - N/A   Light Drizzle
4:28 PM 59.0 °F 57.2 °F 94% 29.70 in 10.0 mi Calm Calm - N/A   Scattered Clouds
4:56 PM 59.5 °F 58.6 °F 97% 29.74 in 10.0 mi SSE 6.9 mph - 0.00 in   Light Drizzle
5:07 PM 59.2 °F 58.3 °F 97% 29.73 in 10.0 mi SE 5.8 mph - 0.00 in Rain Light Rain Showers
5:12 PM 59.0 °F 59.0 °F 100% 29.70 in 10.0 mi South 4.6 mph - N/A Rain Light Rain
5:42 PM 60.8 °F 60.8 °F 100% 29.67 in 10.0 mi North 9.2 mph - N/A   Scattered Clouds
5:56 PM 61.0 °F 60.1 °F 97% 29.69 in 10.0 mi NW 12.7 mph - 0.02 in   Partly Cloudy
6:56 PM 60.3 °F 59.2 °F 96% 29.70 in 10.0 mi WNW 4.6 mph - N/A   Partly Cloudy
7:56 PM 61.5 °F 60.3 °F 96% 29.68 in 10.0 mi North 8.1 mph - N/A   Clear
8:13 PM 60.8 °F 60.8 °F 100% 29.68 in 10.0 mi NNW 8.1 mph - N/A   Partly Cloudy
8:56 PM 61.2 °F 60.6 °F 98% 29.69 in 10.0 mi East 4.6 mph - N/A   Scattered Clouds
9:06 PM 60.8 °F 60.8 °F 100% 29.69 in 10.0 mi ENE 4.6 mph - N/A   Mostly Cloudy
9:56 PM 61.9 °F 61.5 °F 99% 29.68 in 10.0 mi North 6.9 mph - N/A   Overcast
10:06 PM 62.6 °F 60.8 °F 94% 29.68 in 10.0 mi North 6.9 mph - N/A   Overcast
10:16 PM 62.6 °F 62.6 °F 100% 29.69 in 9.0 mi North 5.8 mph - N/A   Overcast
10:38 PM 62.6 °F 62.6 °F 100% 29.67 in 9.0 mi North 4.6 mph - N/A Rain Light Rain
10:56 PM 62.2 °F 61.9 °F 99% 29.66 in 8.0 mi North 8.1 mph - 0.03 in Rain Light Rain
11:01 PM 62.6 °F 62.6 °F 100% 29.66 in 9.0 mi North 8.1 mph - N/A   Light Drizzle
11:02 PM 62.6 °F 62.6 °F 100% 29.66 in 9.0 mi North 9.2 mph - N/A   Overcast
11:22 PM 62.6 °F 62.6 °F 100% 29.67 in 10.0 mi NNE 8.1 mph - N/A   Overcast
11:27 PM 62.6 °F 62.6 °F 100% 29.67 in 10.0 mi North 6.9 mph - N/A   Overcast
11:32 PM 62.6 °F 62.6 °F 100% 29.67 in 10.0 mi NNW 9.2 mph - N/A   Overcast
11:56 PM 62.2 °F 61.9 °F 99% 29.66 in 10.0 mi North 11.5 mph - 0.00 in   Overcast